Location: Dumpton Point
(51.3500°N, 1.4433°E)
Time: 18:00:13
(UTC+00:00)

X-37B - Pass Details

Date: 14 March 2021
Orbit: 380 x 394 km, 45.0° (Epoch: 07 April)

Event Time Altitude Azimuth Distance (km) Brightness Sun altitude
Rises 19:32:01 0° 235° (SW) 2,268 5.1 -15.4°
Reaches altitude 10° 19:34:23 10° 219° (SW) 1,418 3.7 -15.8°
Enters shadow 19:36:47 21° 170° (S) 930 2.2 -16.1°
